User: anonymous   Login
Location: Berg
(47.2344°N, 9.5296°E)
Time: 20:00:58
(UTC+00:00)
Language:

SL-08 RB Rocket - Orbit

View from above orbital plane
View from above orbital plane
View from above satellite
View from above satellite

Ground track
Ground track

The orbit data is extracted from the following two-line orbital elements,

1 26387U 00033D   21104.56604947  .00000095  00000-0  24322-4 0  9992
2 26387  97.7808 138.2338 0025978 199.0950 277.9630 14.68690804370649
Epoch (UTC): 14 April 2021 13:35:06
Eccentricity: 0.0025978
inclination: 97.7808°
perigee height: 647 km
apogee height: 683 km
right ascension of ascending node: 138.2338°
argument of perigee: 199.0950°
revolutions per day: 14.68690804
mean anomaly at epoch: 277.9630°
orbit number at epoch: 37064

The dashed part of the orbit path shows where the satellite is in the earth's shadow,  

DLR